User: anonymous   Login
Location: Bamobli
(6.6379°N, 10.9396°W)
Time: 17:20:17
(UTC+00:00)
Language:

BLOCK DM-SL R/B - Orbit

View from above orbital plane
View from above orbital plane
View from above satellite
View from above satellite

Ground track
Ground track

The orbit data is extracted from the following two-line orbital elements,

1 27446U 02030B   20227.91993828 -.00000344  00000-0 -95727-4 0  9997
2 27446   1.0043  65.3758 7511223 243.0371  26.0056  1.95064754128953
Epoch (UTC): 14 August 2020 22:04:42
Eccentricity: 0.7511223
inclination: 1.0043°
perigee height: 356 km
apogee height: 41002 km
right ascension of ascending node: 65.3758°
argument of perigee: 243.0371°
revolutions per day: 1.95064754
mean anomaly at epoch: 26.0056°
orbit number at epoch: 12895

The dashed part of the orbit path shows where the satellite is in the earth's shadow,  

DLR